AEE292 LPPT-LSGG

Flight info

Callsign AEE292
Flight time 1h 53m
Altitude 38000
Route IXIDA DCT TOSDI N745 ZMR N976 DGO T429 TOPTU DCT TOU DCT GAI DCT MEN DCT NINUN DCT LATAM DCT ETREK DCT LUXAN G53 LTP Z16 BELUS
Aircraft A20N/M-SDE2E3FGHIRWXY/LB1

Departure

Time 2026-05-07 17:18
Airport Lisbon Humberto Delgado Airport (LPPT)

Arrival

Time 2026-05-07 19:12
Airport Geneva International Airport (LSGG)
Time Latitude Longitude Altitude Speed Heading
2026-05-07 16:52 38.76980 -9.13089 352 ft 0 kts 78°
2026-05-07 17:04 38.76979 -9.13094 350 ft 2 kts 78°
2026-05-07 17:05 38.76976 -9.13114 359 ft 2 kts 79°
2026-05-07 17:05 38.76972 -9.13135 358 ft 2 kts 79°
2026-05-07 17:05 38.76970 -9.13155 356 ft 2 kts 107°
2026-05-07 17:05 38.76976 -9.13166 357 ft 0 kts 168°
2026-05-07 17:07 38.76976 -9.13165 357 ft 0 kts 168°
2026-05-07 17:07 38.76912 -9.13148 357 ft 19 kts 167°
2026-05-07 17:08 38.76785 -9.13139 354 ft 14 kts 219°
2026-05-07 17:08 38.76774 -9.13205 352 ft 6 kts 261°
2026-05-07 17:08 38.76763 -9.13270 350 ft 13 kts 255°
2026-05-07 17:08 38.76724 -9.13400 354 ft 15 kts 223°
2026-05-07 17:09 38.76688 -9.13430 352 ft 0 kts 213°
2026-05-07 17:09 38.76687 -9.13432 357 ft 3 kts 213°
2026-05-07 17:09 38.76651 -9.13504 353 ft 12 kts 257°
2026-05-07 17:09 38.76634 -9.13603 350 ft 11 kts 258°
2026-05-07 17:10 38.76618 -9.13701 354 ft 11 kts 258°
2026-05-07 17:10 38.76602 -9.13804 350 ft 12 kts 258°
2026-05-07 17:10 38.76585 -9.13905 359 ft 12 kts 257°
2026-05-07 17:10 38.76561 -9.14002 358 ft 11 kts 239°
2026-05-07 17:11 38.76517 -9.14074 350 ft 3 kts 230°
2026-05-07 17:11 38.76510 -9.14086 356 ft 5 kts 234°
2026-05-07 17:11 38.76495 -9.14165 351 ft 10 kts 278°
2026-05-07 17:11 38.76515 -9.14239 351 ft 0 kts 291°
2026-05-07 17:12 38.76516 -9.14241 351 ft 0 kts 291°
2026-05-07 17:13 38.76520 -9.14253 351 ft 3 kts 292°
2026-05-07 17:14 38.76532 -9.14290 353 ft 6 kts 293°
2026-05-07 17:14 38.76537 -9.14303 350 ft 0 kts 293°
2026-05-07 17:16 38.76544 -9.14326 353 ft 8 kts 293°
2026-05-07 17:16 38.76580 -9.14402 351 ft 10 kts 320°
2026-05-07 17:16 38.76635 -9.14392 346 ft 7 kts 21°
2026-05-07 17:16 38.76640 -9.14389 345 ft 0 kts 21°
2026-05-07 17:17 38.76827 -9.14291 350 ft 64 kts 23°
2026-05-07 17:17 38.77478 -9.13937 355 ft 139 kts 22°
2026-05-07 17:18 38.78509 -9.13351 731 ft 169 kts 20°
2026-05-07 17:18 38.79545 -9.12683 1588 ft 166 kts 24°
2026-05-07 17:18 38.80500 -9.11941 2570 ft 159 kts 24°
2026-05-07 17:18 38.81521 -9.11165 3054 ft 184 kts 25°
2026-05-07 17:19 38.82730 -9.10293 3333 ft 215 kts 25°
2026-05-07 17:19 38.84142 -9.09302 3609 ft 245 kts 25°
2026-05-07 17:19 38.85688 -9.08226 4293 ft 258 kts 26°
2026-05-07 17:19 38.87289 -9.07116 5133 ft 265 kts 27°
2026-05-07 17:20 38.88933 -9.05960 5934 ft 273 kts 31°
2026-05-07 17:20 38.90475 -9.04494 6730 ft 278 kts 41°
2026-05-07 17:20 38.91933 -9.02834 7539 ft 282 kts 43°
2026-05-07 17:20 38.93394 -9.01119 8368 ft 286 kts 43°
2026-05-07 17:21 38.94875 -8.99376 9189 ft 291 kts 43°
2026-05-07 17:21 38.96400 -8.97586 9995 ft 295 kts 43°
2026-05-07 17:21 38.97957 -8.95763 10416 ft 314 kts 43°
2026-05-07 17:21 38.99610 -8.93831 10697 ft 335 kts 43°
2026-05-07 17:22 39.01386 -8.91753 10967 ft 356 kts 43°
2026-05-07 17:22 39.03263 -8.89559 11410 ft 370 kts 43°
2026-05-07 17:22 39.05185 -8.87311 12045 ft 377 kts 43°
2026-05-07 17:22 39.07142 -8.85021 12709 ft 384 kts 43°
2026-05-07 17:23 39.09131 -8.82691 13389 ft 389 kts 42°
2026-05-07 17:23 39.11142 -8.80334 14064 ft 394 kts 43°
2026-05-07 17:23 39.13179 -8.77945 14715 ft 398 kts 43°
2026-05-07 17:23 39.15237 -8.75527 15373 ft 402 kts 43°
2026-05-07 17:24 39.17239 -8.72985 16012 ft 405 kts 47°
2026-05-07 17:24 39.19141 -8.70280 16684 ft 410 kts 49°
2026-05-07 17:24 39.21032 -8.67515 17338 ft 413 kts 49°
2026-05-07 17:24 39.22945 -8.64705 17994 ft 417 kts 49°
2026-05-07 17:25 39.24868 -8.61878 18554 ft 421 kts 49°
2026-05-07 17:25 39.26805 -8.59030 19068 ft 425 kts 49°
2026-05-07 17:25 39.28749 -8.56174 19580 ft 429 kts 49°
2026-05-07 17:25 39.30721 -8.53272 20110 ft 433 kts 49°
2026-05-07 17:26 39.32775 -8.50405 20617 ft 436 kts 45°
2026-05-07 17:26 39.34900 -8.47592 21120 ft 440 kts 45°
2026-05-07 17:26 39.37052 -8.44770 21617 ft 443 kts 45°
2026-05-07 17:26 39.39232 -8.41939 22118 ft 446 kts 45°
2026-05-07 17:27 39.41441 -8.39085 22619 ft 449 kts 44°
2026-05-07 17:27 39.43665 -8.36221 23097 ft 453 kts 44°
2026-05-07 17:27 39.45914 -8.33326 23521 ft 457 kts 44°
2026-05-07 17:27 39.48174 -8.30413 23899 ft 460 kts 44°
2026-05-07 17:28 39.50452 -8.27474 24289 ft 463 kts 44°
2026-05-07 17:28 39.52739 -8.24518 24660 ft 466 kts 44°
2026-05-07 17:28 39.55045 -8.21535 25034 ft 469 kts 44°
2026-05-07 17:28 39.57361 -8.18534 25391 ft 472 kts 44°
2026-05-07 17:29 39.59684 -8.15521 25750 ft 474 kts 44°
2026-05-07 17:29 39.62023 -8.12484 26113 ft 477 kts 44°
2026-05-07 17:29 39.64371 -8.09433 26440 ft 480 kts 44°
2026-05-07 17:29 39.66736 -8.06355 26782 ft 482 kts 44°
2026-05-07 17:30 39.69106 -8.03268 27130 ft 484 kts 44°
2026-05-07 17:30 39.71488 -8.00164 27442 ft 487 kts 44°
2026-05-07 17:30 39.73888 -7.97031 27773 ft 489 kts 44°
2026-05-07 17:30 39.76266 -7.93924 28117 ft 491 kts 44°
2026-05-07 17:31 39.78672 -7.90778 28553 ft 490 kts 44°
2026-05-07 17:31 39.81068 -7.87638 28981 ft 489 kts 44°
2026-05-07 17:31 39.83470 -7.84489 29383 ft 489 kts 44°
2026-05-07 17:31 39.85863 -7.81349 29783 ft 489 kts 44°
2026-05-07 17:32 39.88251 -7.78213 30112 ft 489 kts 43°
2026-05-07 17:32 39.90650 -7.75060 30435 ft 489 kts 43°
2026-05-07 17:32 39.93038 -7.71916 30747 ft 489 kts 43°
2026-05-07 17:32 39.94660 -7.69780 30958 ft 488 kts 43°
2026-05-07 17:33 39.97826 -7.65604 31392 ft 488 kts 43°
2026-05-07 17:33 40.00209 -7.62457 31684 ft 488 kts 43°
2026-05-07 17:33 40.02591 -7.59309 31971 ft 487 kts 43°
2026-05-07 17:33 40.04972 -7.56158 32265 ft 487 kts 43°
2026-05-07 17:34 40.07353 -7.53004 32584 ft 487 kts 43°
2026-05-07 17:34 40.09725 -7.49859 32829 ft 488 kts 42°
2026-05-07 17:34 40.12105 -7.46701 33151 ft 486 kts 42°
2026-05-07 17:34 40.14479 -7.43546 33470 ft 485 kts 42°
2026-05-07 17:35 40.16839 -7.40406 33745 ft 485 kts 42°
2026-05-07 17:35 40.19215 -7.37243 33830 ft 487 kts 42°
2026-05-07 17:35 40.23950 -7.30928 33847 ft 486 kts 42°
2026-05-07 17:36 40.26323 -7.27758 34028 ft 486 kts 42°
2026-05-07 17:36 40.28646 -7.24650 34297 ft 484 kts 42°
2026-05-07 17:36 40.31000 -7.21498 34545 ft 483 kts 42°
2026-05-07 17:36 40.33350 -7.18348 34763 ft 483 kts 42°
2026-05-07 17:37 40.35696 -7.15202 34966 ft 482 kts 42°
2026-05-07 17:37 40.38045 -7.12047 35165 ft 482 kts 42°
2026-05-07 17:37 40.40384 -7.08904 35376 ft 482 kts 42°
2026-05-07 17:37 40.42720 -7.05761 35581 ft 481 kts 42°
2026-05-07 17:38 40.45058 -7.02610 35773 ft 481 kts 42°
2026-05-07 17:38 40.47392 -6.99463 35964 ft 481 kts 42°
2026-05-07 17:38 40.49724 -6.96315 36153 ft 481 kts 42°
2026-05-07 17:38 40.52059 -6.93159 36339 ft 480 kts 42°
2026-05-07 17:39 40.54383 -6.90014 36524 ft 480 kts 42°
2026-05-07 17:39 40.56702 -6.86873 36699 ft 479 kts 42°
2026-05-07 17:39 40.59029 -6.83718 36877 ft 479 kts 42°
2026-05-07 17:39 40.61346 -6.80574 37036 ft 479 kts 42°
2026-05-07 17:40 40.63665 -6.77423 37205 ft 478 kts 42°
2026-05-07 17:40 40.65982 -6.74271 37354 ft 478 kts 42°
2026-05-07 17:40 40.68292 -6.71126 37506 ft 478 kts 42°
2026-05-07 17:40 40.70605 -6.67973 37670 ft 477 kts 42°
2026-05-07 17:41 40.72907 -6.64833 37816 ft 477 kts 42°
2026-05-07 17:41 40.75218 -6.61676 37851 ft 479 kts 42°
2026-05-07 17:41 40.79852 -6.55337 37855 ft 478 kts 42°
2026-05-07 17:42 40.84458 -6.49020 37854 ft 477 kts 42°
2026-05-07 17:42 40.89064 -6.42691 37862 ft 477 kts 42°
2026-05-07 17:43 40.93659 -6.36365 37858 ft 476 kts 42°
2026-05-07 17:43 40.98220 -6.30072 37861 ft 476 kts 42°
2026-05-07 17:44 41.02984 -6.24018 37863 ft 474 kts 38°
2026-05-07 17:44 41.07915 -6.18218 37869 ft 473 kts 37°
2026-05-07 17:45 41.12851 -6.12421 37866 ft 474 kts 37°
2026-05-07 17:45 41.17761 -6.06580 37871 ft 474 kts 37°
2026-05-07 17:46 41.21837 -6.01694 37869 ft 475 kts 38°
2026-05-07 17:46 41.26747 -5.95786 37875 ft 475 kts 38°
2026-05-07 17:47 41.31650 -5.89876 37871 ft 476 kts 38°
2026-05-07 17:47 41.37348 -5.82995 37877 ft 476 kts 38°
2026-05-07 17:48 41.41457 -5.78023 37875 ft 476 kts 38°
2026-05-07 17:48 41.46359 -5.72080 37875 ft 477 kts 38°
2026-05-07 17:49 41.51161 -5.66033 37873 ft 480 kts 45°
2026-05-07 17:49 41.54814 -5.58518 37885 ft 487 kts 60°
2026-05-07 17:50 41.57694 -5.50307 37882 ft 489 kts 63°
2026-05-07 17:50 41.60410 -5.41978 37890 ft 488 kts 64°
2026-05-07 17:51 41.63114 -5.33661 37891 ft 487 kts 63°
2026-05-07 17:51 41.65833 -5.25372 37903 ft 486 kts 63°
2026-05-07 17:52 41.68556 -5.17094 37906 ft 485 kts 63°
2026-05-07 17:52 41.71271 -5.08825 37912 ft 485 kts 63°
2026-05-07 17:53 41.73956 -5.00620 37910 ft 484 kts 63°
2026-05-07 17:53 41.76648 -4.92363 37914 ft 483 kts 63°
2026-05-07 17:54 41.79333 -4.84105 37909 ft 483 kts 64°
2026-05-07 17:54 41.82005 -4.75859 37913 ft 482 kts 64°
2026-05-07 17:55 41.84673 -4.67602 37914 ft 482 kts 64°
2026-05-07 17:55 41.87329 -4.59354 37919 ft 481 kts 64°
2026-05-07 17:56 41.89984 -4.51090 37921 ft 481 kts 64°
2026-05-07 17:56 41.92628 -4.42830 37922 ft 481 kts 64°
2026-05-07 17:57 41.94818 -4.35970 37922 ft 481 kts 64°
2026-05-07 17:57 41.97882 -4.26343 37918 ft 481 kts 64°
2026-05-07 17:58 42.00507 -4.18068 37915 ft 481 kts 65°
2026-05-07 17:58 42.03144 -4.09800 37919 ft 480 kts 63°
2026-05-07 17:59 42.05968 -4.01658 37920 ft 479 kts 62°
2026-05-07 17:59 42.08841 -3.93625 37920 ft 479 kts 62°
2026-05-07 18:00 42.11718 -3.85524 37921 ft 479 kts 63°
2026-05-07 18:00 42.14569 -3.77412 37930 ft 479 kts 63°
2026-05-07 18:01 42.17409 -3.69285 37928 ft 479 kts 63°
2026-05-07 18:01 42.20241 -3.61156 37937 ft 480 kts 63°
2026-05-07 18:02 42.24493 -3.48906 37938 ft 480 kts 63°
2026-05-07 18:03 42.27303 -3.40786 37937 ft 480 kts 64°
2026-05-07 18:03 42.30122 -3.32613 37936 ft 481 kts 64°
2026-05-07 18:04 42.32942 -3.24411 37937 ft 481 kts 64°
2026-05-07 18:04 42.35760 -3.16193 37934 ft 482 kts 64°
2026-05-07 18:05 42.38573 -3.07965 37934 ft 482 kts 64°
2026-05-07 18:05 42.41387 -2.99709 37930 ft 483 kts 64°
2026-05-07 18:06 42.44121 -2.91381 37928 ft 484 kts 70°
2026-05-07 18:06 42.44999 -2.86992 37924 ft 484 kts 81°
2026-05-07 18:06 42.45372 -2.82470 37929 ft 483 kts 86°
2026-05-07 18:07 42.45651 -2.73435 37926 ft 483 kts 90°
2026-05-07 18:07 42.45735 -2.64348 37918 ft 482 kts 90°
2026-05-07 18:08 42.45808 -2.55265 37916 ft 481 kts 90°
2026-05-07 18:08 42.45903 -2.46201 37911 ft 481 kts 90°
2026-05-07 18:09 42.46006 -2.37154 37913 ft 481 kts 90°
2026-05-07 18:09 42.46845 -2.28167 37914 ft 482 kts 79°
2026-05-07 18:10 42.48242 -2.19272 37912 ft 483 kts 77°
2026-05-07 18:10 42.49741 -2.10389 37918 ft 483 kts 77°
2026-05-07 18:11 42.51229 -2.01532 37920 ft 483 kts 78°
2026-05-07 18:11 42.52697 -1.92652 37926 ft 482 kts 78°
2026-05-07 18:12 42.54150 -1.83764 37932 ft 482 kts 78°
2026-05-07 18:12 42.55590 -1.74903 37932 ft 481 kts 78°
2026-05-07 18:13 42.57014 -1.66087 37934 ft 481 kts 78°
2026-05-07 18:13 42.58438 -1.57233 37935 ft 480 kts 78°
2026-05-07 18:14 42.59857 -1.48369 37936 ft 480 kts 78°
2026-05-07 18:14 42.61266 -1.39518 37937 ft 479 kts 78°
2026-05-07 18:15 42.62666 -1.30677 37941 ft 478 kts 78°
2026-05-07 18:15 42.64056 -1.21856 37939 ft 478 kts 78°
2026-05-07 18:16 42.65442 -1.13015 37945 ft 478 kts 78°
2026-05-07 18:16 42.66811 -1.04238 37950 ft 478 kts 79°
2026-05-07 18:17 42.68184 -0.95382 37951 ft 478 kts 79°
2026-05-07 18:17 42.69549 -0.86534 37957 ft 479 kts 79°
2026-05-07 18:18 42.70909 -0.77668 37963 ft 479 kts 79°
2026-05-07 18:18 42.72259 -0.68813 37966 ft 478 kts 79°
2026-05-07 18:19 42.73605 -0.59946 37972 ft 478 kts 79°
2026-05-07 18:19 42.74942 -0.51080 37966 ft 478 kts 79°
2026-05-07 18:20 42.76272 -0.42219 37972 ft 478 kts 79°
2026-05-07 18:20 42.77588 -0.33403 37973 ft 478 kts 79°
2026-05-07 18:21 42.78957 -0.24547 37974 ft 478 kts 75°
2026-05-07 18:21 42.81702 -0.16334 37974 ft 479 kts 54°
2026-05-07 18:22 42.85722 -0.09094 37970 ft 480 kts 50°
2026-05-07 18:22 42.89979 -0.02064 37965 ft 480 kts 49°
2026-05-07 18:23 42.94250 0.04945 37951 ft 480 kts 50°
2026-05-07 18:23 42.98488 0.11986 37948 ft 480 kts 50°
2026-05-07 18:24 43.02706 0.19054 37951 ft 480 kts 50°
2026-05-07 18:24 43.06923 0.26148 37946 ft 480 kts 50°
2026-05-07 18:25 43.11111 0.33210 37944 ft 480 kts 50°
2026-05-07 18:25 43.15316 0.40316 37944 ft 480 kts 50°
2026-05-07 18:26 43.19519 0.47432 37933 ft 480 kts 50°
2026-05-07 18:26 43.23710 0.54548 37933 ft 479 kts 50°
2026-05-07 18:27 43.27898 0.61675 37935 ft 479 kts 50°
2026-05-07 18:27 43.32080 0.68808 37935 ft 480 kts 50°
2026-05-07 18:28 43.36261 0.75958 37937 ft 480 kts 50°
2026-05-07 18:28 43.40412 0.83073 37939 ft 480 kts 50°
2026-05-07 18:29 43.44592 0.90256 37936 ft 480 kts 50°
2026-05-07 18:29 43.48756 0.97430 37935 ft 480 kts 51°
2026-05-07 18:30 43.52923 1.04627 37933 ft 480 kts 51°
2026-05-07 18:30 43.57089 1.11837 37935 ft 480 kts 51°
2026-05-07 18:31 43.61245 1.19051 37938 ft 480 kts 51°
2026-05-07 18:31 43.65372 1.26231 37937 ft 480 kts 51°
2026-05-07 18:32 43.69492 1.33504 37935 ft 480 kts 52°
2026-05-07 18:32 43.73475 1.40926 37938 ft 481 kts 53°
2026-05-07 18:33 43.77421 1.48392 37938 ft 481 kts 53°
2026-05-07 18:33 43.81380 1.55871 37936 ft 481 kts 53°
2026-05-07 18:34 43.84676 1.62089 37937 ft 481 kts 53°
2026-05-07 18:34 43.89277 1.70778 37944 ft 481 kts 53°
2026-05-07 18:35 43.92585 1.77040 37940 ft 481 kts 53°
2026-05-07 18:35 43.96521 1.84566 37940 ft 481 kts 54°
2026-05-07 18:36 44.00326 1.92154 37945 ft 481 kts 55°
2026-05-07 18:36 44.04120 1.99826 37942 ft 482 kts 55°
2026-05-07 18:37 44.07916 2.07503 37947 ft 482 kts 55°
2026-05-07 18:37 44.11716 2.15181 37946 ft 482 kts 55°
2026-05-07 18:38 44.15515 2.22870 37958 ft 482 kts 55°
2026-05-07 18:38 44.19316 2.30582 37961 ft 482 kts 55°
2026-05-07 18:39 44.23088 2.38258 37957 ft 482 kts 55°
2026-05-07 18:39 44.26877 2.45988 37960 ft 482 kts 55°
2026-05-07 18:40 44.30663 2.53734 37966 ft 482 kts 55°
2026-05-07 18:40 44.34441 2.61484 37959 ft 483 kts 56°
2026-05-07 18:41 44.38191 2.69197 37966 ft 483 kts 56°
2026-05-07 18:41 44.41963 2.76977 37960 ft 483 kts 56°
2026-05-07 18:42 44.45727 2.84759 37972 ft 483 kts 56°
2026-05-07 18:42 44.49493 2.92567 37969 ft 483 kts 56°
2026-05-07 18:43 44.53246 3.00371 37970 ft 483 kts 56°
2026-05-07 18:43 44.56998 3.08193 37967 ft 483 kts 56°
2026-05-07 18:44 44.60740 3.16036 37968 ft 483 kts 57°
2026-05-07 18:44 44.64174 3.24150 37971 ft 483 kts 61°
2026-05-07 18:45 44.67429 3.32435 37967 ft 484 kts 61°
2026-05-07 18:45 44.70656 3.40659 37971 ft 484 kts 61°
2026-05-07 18:46 44.73934 3.48930 37973 ft 484 kts 61°
2026-05-07 18:46 44.77222 3.57198 37979 ft 484 kts 61°
2026-05-07 18:47 44.80506 3.65476 37982 ft 484 kts 61°
2026-05-07 18:47 44.83781 3.73757 37985 ft 484 kts 61°
2026-05-07 18:48 44.87049 3.82049 37986 ft 484 kts 61°
2026-05-07 18:48 44.90291 3.90304 37991 ft 484 kts 61°
2026-05-07 18:49 44.93546 3.98612 37989 ft 484 kts 61°
2026-05-07 18:49 44.96799 4.06942 37987 ft 484 kts 61°
2026-05-07 18:50 45.00048 4.15285 37985 ft 484 kts 61°
2026-05-07 18:50 45.03313 4.23693 37611 ft 496 kts 61°
2026-05-07 18:50 45.04978 4.27990 36962 ft 499 kts 61°
2026-05-07 18:51 45.06618 4.32231 36316 ft 498 kts 61°
2026-05-07 18:51 45.08285 4.36548 35675 ft 498 kts 61°
2026-05-07 18:51 45.09940 4.40842 35057 ft 497 kts 61°
2026-05-07 18:51 45.11595 4.45142 34459 ft 496 kts 61°
2026-05-07 18:52 45.13250 4.49446 33847 ft 496 kts 61°
2026-05-07 18:52 45.14892 4.53726 33156 ft 494 kts 61°
2026-05-07 18:52 45.16530 4.58000 32477 ft 493 kts 61°
2026-05-07 18:52 45.18160 4.62262 31824 ft 491 kts 61°
2026-05-07 18:53 45.19784 4.66513 31199 ft 489 kts 62°
2026-05-07 18:53 45.21402 4.70754 30575 ft 487 kts 62°
2026-05-07 18:53 45.23009 4.74973 29949 ft 485 kts 62°
2026-05-07 18:53 45.24608 4.79178 29237 ft 483 kts 62°
2026-05-07 18:54 45.26201 4.83375 28537 ft 481 kts 62°
2026-05-07 18:54 45.27778 4.87535 27803 ft 479 kts 62°
2026-05-07 18:54 45.29360 4.91716 27009 ft 479 kts 62°
2026-05-07 18:54 45.30912 4.95822 26250 ft 478 kts 62°
2026-05-07 18:55 45.32492 5.00007 25496 ft 477 kts 62°
2026-05-07 18:55 45.34053 5.04150 24777 ft 476 kts 62°
2026-05-07 18:55 45.35611 5.08292 24060 ft 473 kts 62°
2026-05-07 18:55 45.37159 5.12413 23320 ft 471 kts 62°
2026-05-07 18:56 45.38693 5.16502 22497 ft 467 kts 62°
2026-05-07 18:56 45.40215 5.20567 21692 ft 464 kts 62°
2026-05-07 18:56 45.41720 5.24594 20913 ft 455 kts 62°
2026-05-07 18:56 45.43181 5.28506 20221 ft 439 kts 62°
2026-05-07 18:57 45.44583 5.32267 19708 ft 420 kts 62°
2026-05-07 18:57 45.45925 5.35871 19212 ft 403 kts 62°
2026-05-07 18:57 45.47238 5.39369 18734 ft 388 kts 60°
2026-05-07 18:57 45.48756 5.42458 18260 ft 374 kts 49°
2026-05-07 18:58 45.50619 5.44954 17730 ft 362 kts 36°
2026-05-07 18:58 45.52684 5.46933 17204 ft 351 kts 31°
2026-05-07 18:58 45.54746 5.48712 16683 ft 342 kts 30°
2026-05-07 18:58 45.56776 5.50418 16173 ft 334 kts 30°
2026-05-07 18:59 45.58738 5.52056 15671 ft 328 kts 30°
2026-05-07 18:59 45.60704 5.53693 15173 ft 326 kts 30°
2026-05-07 18:59 45.62672 5.55332 14690 ft 327 kts 30°
2026-05-07 18:59 45.64635 5.56968 14198 ft 328 kts 30°
2026-05-07 19:00 45.66608 5.58613 13738 ft 328 kts 30°
2026-05-07 19:00 45.68589 5.60216 13258 ft 326 kts 29°
2026-05-07 19:00 45.70571 5.61784 12789 ft 325 kts 28°
2026-05-07 19:00 45.72549 5.63342 12316 ft 323 kts 28°
2026-05-07 19:01 45.74496 5.64877 11872 ft 315 kts 28°
2026-05-07 19:01 45.76382 5.66366 11489 ft 305 kts 29°
2026-05-07 19:01 45.78213 5.67814 11124 ft 295 kts 29°
2026-05-07 19:01 45.79989 5.69219 10738 ft 288 kts 29°
2026-05-07 19:02 45.81721 5.70591 10377 ft 281 kts 29°
2026-05-07 19:02 45.83388 5.71912 10033 ft 274 kts 29°
2026-05-07 19:02 45.85041 5.73224 9663 ft 270 kts 29°
2026-05-07 19:02 45.86685 5.74529 9278 ft 269 kts 29°
2026-05-07 19:03 45.88388 5.75648 8880 ft 271 kts 17°
2026-05-07 19:03 45.90211 5.76316 8497 ft 271 kts 11°
2026-05-07 19:03 45.92055 5.76842 8131 ft 269 kts 10°
2026-05-07 19:03 45.93877 5.77339 7931 ft 261 kts 10°
2026-05-07 19:04 45.95643 5.77819 7642 ft 258 kts 11°
2026-05-07 19:04 45.97414 5.78304 7247 ft 259 kts 11°
2026-05-07 19:04 45.99189 5.78795 6853 ft 260 kts 11°
2026-05-07 19:04 46.00968 5.79324 6476 ft 260 kts 15°
2026-05-07 19:05 46.02616 5.80297 6133 ft 253 kts 31°
2026-05-07 19:05 46.03962 5.81808 5994 ft 238 kts 45°
2026-05-07 19:05 46.05079 5.83453 5990 ft 223 kts 47°
2026-05-07 19:05 46.06137 5.85024 5983 ft 221 kts 47°
2026-05-07 19:06 46.07217 5.86620 5836 ft 217 kts 46°
2026-05-07 19:06 46.09240 5.89567 5292 ft 197 kts 46°
2026-05-07 19:06 46.10189 5.90953 4992 ft 192 kts 46°
2026-05-07 19:07 46.11118 5.92312 4706 ft 189 kts 46°
2026-05-07 19:07 46.12037 5.93657 4441 ft 188 kts 46°
2026-05-07 19:07 46.12953 5.94996 4184 ft 186 kts 46°
2026-05-07 19:07 46.13858 5.96321 3938 ft 185 kts 45°
2026-05-07 19:08 46.14743 5.97616 3676 ft 175 kts 45°
2026-05-07 19:08 46.15563 5.98816 3495 ft 161 kts 45°
2026-05-07 19:08 46.16339 5.99953 3263 ft 158 kts 45°
2026-05-07 19:08 46.17109 6.01080 3044 ft 157 kts 45°
2026-05-07 19:09 46.17865 6.02189 2825 ft 152 kts 45°
2026-05-07 19:09 46.18599 6.03264 2613 ft 150 kts 44°
2026-05-07 19:09 46.19330 6.04336 2404 ft 149 kts 44°
2026-05-07 19:09 46.20049 6.05391 2197 ft 145 kts 44°
2026-05-07 19:10 46.20747 6.06415 2006 ft 140 kts 45°
2026-05-07 19:10 46.21430 6.07417 1827 ft 140 kts 44°
2026-05-07 19:10 46.22101 6.08402 1646 ft 138 kts 44°
2026-05-07 19:10 46.22772 6.09387 1464 ft 135 kts 44°
2026-05-07 19:11 46.23329 6.10202 1416 ft 77 kts 43°
2026-05-07 19:11 46.23664 6.10683 1412 ft 65 kts 46°
2026-05-07 19:11 46.23963 6.11126 1408 ft 58 kts 45°
2026-05-07 19:11 46.24232 6.11531 1400 ft 51 kts 51°
2026-05-07 19:12 46.24336 6.11847 1384 ft 23 kts 78°
2026-05-07 19:12 46.24338 6.11895 1386 ft 1 kts 101°
2026-05-07 19:12 46.24320 6.11926 1383 ft 12 kts 152°
2026-05-07 19:12 46.24252 6.11880 1387 ft 10 kts 225°
2026-05-07 19:13 46.24202 6.11808 1385 ft 10 kts 225°
2026-05-07 19:13 46.24155 6.11737 1388 ft 9 kts 226°
2026-05-07 19:13 46.24120 6.11685 1390 ft 5 kts 226°
2026-05-07 19:13 46.24081 6.11633 1397 ft 10 kts 223°
2026-05-07 19:14 46.24037 6.11567 1393 ft 8 kts 227°
2026-05-07 19:14 46.23994 6.11503 1400 ft 15 kts 225°
2026-05-07 19:14 46.23879 6.11336 1403 ft 26 kts 227°
2026-05-07 19:14 46.23757 6.11155 1400 ft 24 kts 225°
2026-05-07 19:15 46.23638 6.10983 1399 ft 24 kts 226°
2026-05-07 19:15 46.23528 6.10821 1403 ft 22 kts 223°
2026-05-07 19:15 46.23426 6.10669 1412 ft 19 kts 227°
2026-05-07 19:15 46.23337 6.10551 1412 ft 16 kts 225°
2026-05-07 19:16 46.23263 6.10441 1414 ft 14 kts 225°
2026-05-07 19:16 46.23202 6.10354 1414 ft 9 kts 211°
2026-05-07 19:16 46.23145 6.10383 1414 ft 10 kts 140°
2026-05-07 19:16 46.23089 6.10461 1414 ft 12 kts 134°
2026-05-07 19:17 46.23035 6.10466 1413 ft 6 kts 223°
2026-05-07 19:17 46.23005 6.10424 1410 ft 6 kts 226°
2026-05-07 19:17 46.22981 6.10407 1411 ft 5 kts 168°
2026-05-07 19:17 46.22948 6.10450 1409 ft 0 kts 137°